URO544 LTBS-EGHH

Flight info

Callsign URO544
Flight time N/A
Altitude 36000
Route KEKIK UN127 LMO UN128 FSK UL608 DISOR DCT SKJ DCT LONTA UL608 DOLEV DCT GILUK DCT KULEN DCT ELPEZ DCT NAXAV DCT SAFFA DCT ROLSA DCT BEGAR DCT ETINO DCT SUBIP UM8 ELDAX
Aircraft A346/H-VGDW/C

Departure

Time 2026-05-06 10:07
Airport Dalaman International Airport (LTBS)

Arrival

Time N/A
Airport Bournemouth Airport (EGHH)
Time Latitude Longitude Altitude Speed Heading
2026-05-06 09:38 36.71416 28.78945 24 ft 0 kts 101°
2026-05-06 09:57 36.71419 28.78928 29 ft 0 kts 101°
2026-05-06 09:57 36.71423 28.78897 29 ft 0 kts 101°
2026-05-06 09:58 36.71429 28.78864 29 ft 0 kts 101°
2026-05-06 09:58 36.71434 28.78832 30 ft 0 kts 101°
2026-05-06 09:58 36.71441 28.78807 30 ft 0 kts 130°
2026-05-06 09:58 36.71456 28.78797 30 ft 0 kts 171°
2026-05-06 09:59 36.71475 28.78801 30 ft 0 kts 207°
2026-05-06 09:59 36.71482 28.78807 30 ft 0 kts 221°
2026-05-06 10:00 36.71481 28.78806 24 ft 1 kts 221°
2026-05-06 10:00 36.71472 28.78796 27 ft 3 kts 221°
2026-05-06 10:00 36.71450 28.78772 29 ft 5 kts 220°
2026-05-06 10:01 36.71439 28.78766 28 ft 0 kts 188°
2026-05-06 10:01 36.71431 28.78765 27 ft 2 kts 186°
2026-05-06 10:02 36.71425 28.78765 26 ft 1 kts 176°
2026-05-06 10:02 36.71415 28.78771 29 ft 4 kts 149°
2026-05-06 10:02 36.71384 28.78822 28 ft 5 kts 116°
2026-05-06 10:02 36.71361 28.78889 25 ft 12 kts 107°
2026-05-06 10:03 36.71337 28.78972 25 ft 6 kts 115°
2026-05-06 10:03 36.71293 28.79019 27 ft 12 kts 168°
2026-05-06 10:03 36.71187 28.78993 23 ft 19 kts 194°
2026-05-06 10:03 36.71038 28.78944 23 ft 26 kts 195°
2026-05-06 10:04 36.70847 28.78878 24 ft 31 kts 195°
2026-05-06 10:04 36.70624 28.78802 23 ft 35 kts 195°
2026-05-06 10:04 36.70393 28.78724 22 ft 34 kts 195°
2026-05-06 10:04 36.70180 28.78651 21 ft 27 kts 195°
2026-05-06 10:05 36.70070 28.78683 20 ft 17 kts 122°
2026-05-06 10:05 36.70100 28.78830 18 ft 13 kts 32°
2026-05-06 10:05 36.70137 28.78850 19 ft 0 kts 14°
2026-05-06 10:06 36.70410 28.78941 23 ft 76 kts 15°
2026-05-06 10:06 36.71117 28.79180 22 ft 132 kts 15°
2026-05-06 10:06 36.72169 28.79537 26 ft 179 kts 15°
2026-05-06 10:06 36.73441 28.79970 311 ft 194 kts 15°
2026-05-06 10:07 36.74761 28.80434 758 ft 199 kts 13°
2026-05-06 10:07 36.76086 28.80873 1318 ft 199 kts
2026-05-06 10:07 36.77445 28.81066 1960 ft 195 kts 354°
2026-05-06 10:07 36.78682 28.80527 2553 ft 186 kts 322°
2026-05-06 10:08 36.79515 28.79342 3173 ft 180 kts 308°
2026-05-06 10:08 36.80235 28.78038 3528 ft 187 kts 308°
2026-05-06 10:08 36.81081 28.76723 3814 ft 201 kts 312°
2026-05-06 10:08 36.82030 28.75345 4119 ft 217 kts 313°
2026-05-06 10:09 36.83050 28.73858 4358 ft 233 kts 312°
2026-05-06 10:09 36.84148 28.72250 4614 ft 253 kts 312°
2026-05-06 10:09 36.85306 28.70532 4877 ft 260 kts 313°
2026-05-06 10:09 36.86454 28.68826 5136 ft 260 kts 313°
2026-05-06 10:10 36.87626 28.67087 5330 ft 266 kts 313°
2026-05-06 10:10 36.88846 28.65278 5832 ft 273 kts 313°
2026-05-06 10:10 36.90054 28.63479 6764 ft 268 kts 313°
2026-05-06 10:10 36.91249 28.61694 7562 ft 268 kts 313°
2026-05-06 10:11 36.92456 28.59891 8286 ft 271 kts 313°
2026-05-06 10:11 36.93673 28.58075 9070 ft 273 kts 313°
2026-05-06 10:11 36.94899 28.56244 9823 ft 276 kts 312°
2026-05-06 10:11 36.96137 28.54390 10503 ft 278 kts 312°
2026-05-06 10:12 36.97382 28.52525 11179 ft 280 kts 312°
2026-05-06 10:12 36.98619 28.50672 11863 ft 281 kts 312°
2026-05-06 10:12 36.99878 28.48783 12553 ft 283 kts 311°
2026-05-06 10:12 37.01145 28.46881 13257 ft 285 kts 311°
2026-05-06 10:13 37.02421 28.44966 13939 ft 287 kts 311°
2026-05-06 10:13 37.03708 28.43031 14527 ft 290 kts 311°
2026-05-06 10:13 37.05004 28.41081 15158 ft 292 kts 311°
2026-05-06 10:13 37.06307 28.39121 15813 ft 293 kts 311°
2026-05-06 10:14 37.07676 28.37213 16490 ft 295 kts 315°
2026-05-06 10:14 37.09161 28.35416 16999 ft 301 kts 319°
2026-05-06 10:14 37.10780 28.33652 17257 ft 314 kts 320°
2026-05-06 10:14 37.12452 28.31857 17518 ft 327 kts 320°
2026-05-06 10:15 37.14217 28.29962 17789 ft 341 kts 320°
2026-05-06 10:15 37.16053 28.27990 18044 ft 354 kts 320°
2026-05-06 10:15 37.17952 28.25947 18299 ft 367 kts 320°
2026-05-06 10:15 37.19928 28.23819 18529 ft 379 kts 320°
2026-05-06 10:16 37.21964 28.21625 18745 ft 390 kts 320°
2026-05-06 10:16 37.24035 28.19391 19180 ft 395 kts 320°
2026-05-06 10:16 37.28536 28.14530 20389 ft 398 kts 320°
2026-05-06 10:17 37.30642 28.12253 20932 ft 400 kts 319°
2026-05-06 10:17 37.32757 28.09963 21463 ft 402 kts 319°
2026-05-06 10:17 37.34883 28.07659 22016 ft 404 kts 319°
2026-05-06 10:17 37.37020 28.05342 22525 ft 406 kts 319°
2026-05-06 10:18 37.39167 28.03012 23012 ft 409 kts 319°
2026-05-06 10:18 37.41330 28.00663 23514 ft 412 kts 319°
2026-05-06 10:18 37.43474 27.98333 23979 ft 414 kts 319°
2026-05-06 10:18 37.45654 27.95959 24411 ft 416 kts 319°
2026-05-06 10:19 37.47852 27.93566 24810 ft 418 kts 319°
2026-05-06 10:19 37.50057 27.91162 25209 ft 420 kts 319°
2026-05-06 10:19 37.52273 27.88746 25594 ft 422 kts 319°
2026-05-06 10:19 37.54501 27.86314 25989 ft 425 kts 319°
2026-05-06 10:20 37.56740 27.83868 26380 ft 427 kts 319°
2026-05-06 10:20 37.58990 27.81408 26764 ft 429 kts 319°
2026-05-06 10:20 37.61219 27.78970 27156 ft 431 kts 319°
2026-05-06 10:20 37.63494 27.76479 27538 ft 433 kts 319°
2026-05-06 10:21 37.65774 27.73981 27934 ft 435 kts 319°
2026-05-06 10:21 37.68070 27.71462 28312 ft 438 kts 319°
2026-05-06 10:21 37.70367 27.68941 28784 ft 437 kts 319°
2026-05-06 10:21 37.72658 27.66423 29422 ft 435 kts 319°
2026-05-06 10:22 37.74932 27.63921 30022 ft 432 kts 319°
2026-05-06 10:22 37.77194 27.61431 30489 ft 430 kts 319°
2026-05-06 10:22 37.79447 27.58950 30925 ft 429 kts 319°
2026-05-06 10:22 37.81664 27.56506 31368 ft 427 kts 319°
2026-05-06 10:23 37.83902 27.54037 31808 ft 426 kts 319°
2026-05-06 10:23 37.86130 27.51576 32245 ft 424 kts 319°
2026-05-06 10:23 37.88349 27.49123 32679 ft 422 kts 319°
2026-05-06 10:23 37.90559 27.46677 33087 ft 421 kts 319°
2026-05-06 10:24 37.92762 27.44237 33509 ft 420 kts 319°
2026-05-06 10:24 37.94962 27.41801 33886 ft 419 kts 319°
2026-05-06 10:24 37.97156 27.39368 34263 ft 418 kts 319°
2026-05-06 10:24 37.98608 27.37758 34476 ft 417 kts 319°
2026-05-06 10:25 38.00790 27.35337 34791 ft 417 kts 319°
2026-05-06 10:25 38.03679 27.32127 35175 ft 417 kts 319°
2026-05-06 10:25 38.05868 27.29691 35463 ft 417 kts 319°
2026-05-06 10:25 38.07315 27.28083 35641 ft 417 kts 319°
2026-05-06 10:26 38.09500 27.25649 35878 ft 417 kts 319°
2026-05-06 10:26 38.11687 27.23210 36106 ft 417 kts 319°
2026-05-06 10:26 38.13872 27.20771 36337 ft 417 kts 319°
2026-05-06 10:26 38.16053 27.18335 36529 ft 418 kts 318°
2026-05-06 10:27 38.18238 27.15890 36690 ft 418 kts 318°
2026-05-06 10:27 38.20397 27.13473 36909 ft 418 kts 318°
2026-05-06 10:27 38.22587 27.11020 37112 ft 419 kts 318°
2026-05-06 10:27 38.24775 27.08566 37271 ft 419 kts 318°
2026-05-06 10:28 38.26969 27.06103 37424 ft 420 kts 318°
2026-05-06 10:28 38.29166 27.03636 37571 ft 421 kts 318°
2026-05-06 10:28 38.31371 27.01158 37738 ft 422 kts 318°
2026-05-06 10:28 38.33588 26.98691 37845 ft 424 kts 318°
2026-05-06 10:29 38.38045 26.93787 38050 ft 426 kts 318°
2026-05-06 10:29 38.42542 26.88827 38093 ft 427 kts 318°
2026-05-06 10:30 38.47021 26.83872 38092 ft 425 kts 318°
2026-05-06 10:30 38.51517 26.78888 38097 ft 425 kts 318°
2026-05-06 10:31 38.55947 26.73967 38099 ft 425 kts 318°
2026-05-06 10:31 38.60409 26.69002 38105 ft 426 kts 318°
2026-05-06 10:32 38.64904 26.63990 38100 ft 428 kts 318°
2026-05-06 10:32 38.69385 26.58985 38093 ft 428 kts 318°
2026-05-06 10:33 38.73874 26.53962 38100 ft 425 kts 318°
2026-05-06 10:33 38.78286 26.49016 38103 ft 424 kts 318°
2026-05-06 10:34 38.82744 26.44010 38107 ft 424 kts 318°
2026-05-06 10:34 38.87240 26.39162 38107 ft 424 kts 320°
2026-05-06 10:35 38.91811 26.34346 38106 ft 427 kts 320°
2026-05-06 10:35 38.96408 26.29478 38118 ft 429 kts 320°
2026-05-06 10:36 39.01036 26.24557 38269 ft 431 kts 320°
2026-05-06 10:36 39.03343 26.22098 38535 ft 429 kts 320°
2026-05-06 10:36 39.05635 26.19655 38772 ft 426 kts 320°
2026-05-06 10:37 39.07920 26.17215 38909 ft 426 kts 319°
2026-05-06 10:37 39.10172 26.14808 39000 ft 426 kts 319°
2026-05-06 10:37 39.14748 26.09907 39171 ft 428 kts 319°
2026-05-06 10:38 39.19338 26.04981 39264 ft 431 kts 319°
2026-05-06 10:38 39.23966 26.00007 39357 ft 433 kts 319°
2026-05-06 10:39 39.28572 25.95049 39507 ft 433 kts 319°
2026-05-06 10:39 39.30873 25.92541 39622 ft 431 kts 319°
2026-05-06 10:39 39.33147 25.90015 39761 ft 430 kts 319°
2026-05-06 10:40 39.35406 25.87496 39984 ft 426 kts 318°
2026-05-06 10:40 39.37647 25.84993 40066 ft 426 kts 318°
2026-05-06 10:40 39.42122 25.79991 40099 ft 428 kts 318°
2026-05-06 10:41 39.46662 25.74909 40112 ft 432 kts 318°
2026-05-06 10:41 39.51206 25.69817 40109 ft 434 kts 318°
2026-05-06 10:42 39.55777 25.64688 40108 ft 434 kts 318°
2026-05-06 10:42 39.60328 25.59568 40105 ft 430 kts 319°
2026-05-06 10:43 39.64832 25.54496 40107 ft 429 kts 318°
2026-05-06 10:44 39.71595 25.46858 40113 ft 429 kts 318°
2026-05-06 10:44 39.76121 25.41734 40109 ft 431 kts 318°
2026-05-06 10:45 39.80619 25.36633 40103 ft 431 kts 318°
2026-05-06 10:45 39.85143 25.31490 40100 ft 430 kts 319°
2026-05-06 10:46 39.89550 25.26205 40108 ft 429 kts 314°
2026-05-06 10:46 39.93525 25.20462 40109 ft 429 kts 309°
2026-05-06 10:47 39.97111 25.14225 40107 ft 429 kts 306°
2026-05-06 10:47 40.00572 25.07864 40104 ft 429 kts 306°
2026-05-06 10:48 40.04023 25.01491 40101 ft 429 kts 306°
2026-05-06 10:48 40.07446 24.95158 40097 ft 430 kts 306°
2026-05-06 10:49 40.10897 24.88753 40096 ft 430 kts 306°
2026-05-06 10:49 40.14341 24.82347 40097 ft 430 kts 306°
2026-05-06 10:50 40.17757 24.75981 40094 ft 430 kts 306°
2026-05-06 10:50 40.21190 24.69572 40094 ft 430 kts 306°
2026-05-06 10:51 40.24629 24.63138 40092 ft 430 kts 306°
2026-05-06 10:51 40.28056 24.56713 40094 ft 430 kts 306°
2026-05-06 10:52 40.31479 24.50283 40092 ft 429 kts 306°
2026-05-06 10:52 40.34877 24.43887 40096 ft 429 kts 306°
2026-05-06 10:53 40.38294 24.37439 40080 ft 430 kts 305°
2026-05-06 10:53 40.41716 24.30974 40090 ft 431 kts 305°
2026-05-06 10:54 40.45135 24.24495 40086 ft 431 kts 305°
2026-05-06 10:54 40.48530 24.18049 40086 ft 431 kts 305°
2026-05-06 10:55 40.51938 24.11564 40084 ft 431 kts 305°
2026-05-06 10:55 40.55348 24.05061 40079 ft 431 kts 305°
2026-05-06 10:56 40.58749 23.98560 40082 ft 431 kts 305°
2026-05-06 10:56 40.62133 23.92086 40083 ft 431 kts 305°
2026-05-06 10:57 40.65535 23.85565 40078 ft 431 kts 305°
2026-05-06 10:57 40.68931 23.79037 40078 ft 431 kts 304°
2026-05-06 10:58 40.72326 23.72493 40066 ft 432 kts 304°
2026-05-06 10:58 40.75707 23.65962 40070 ft 432 kts 304°
2026-05-06 10:59 40.79105 23.59384 40059 ft 432 kts 304°
2026-05-06 10:59 40.82498 23.52801 40061 ft 432 kts 304°
2026-05-06 11:00 40.85868 23.46248 40057 ft 432 kts 304°
2026-05-06 11:00 40.89249 23.39660 40054 ft 433 kts 304°
2026-05-06 11:01 40.92634 23.33046 40051 ft 433 kts 304°
2026-05-06 11:01 40.95997 23.26460 40053 ft 434 kts 304°
2026-05-06 11:02 40.99381 23.19829 40054 ft 434 kts 304°
2026-05-06 11:02 41.02759 23.13199 40052 ft 433 kts 304°
2026-05-06 11:03 41.06114 23.06591 40060 ft 435 kts 304°
2026-05-06 11:03 41.09552 22.99966 40057 ft 435 kts 307°
2026-05-06 11:04 41.13360 22.93718 40055 ft 435 kts 310°
2026-05-06 11:04 41.17278 22.87568 40056 ft 435 kts 310°
2026-05-06 11:05 41.21174 22.81446 40055 ft 435 kts 310°
2026-05-06 11:05 41.25090 22.75279 40054 ft 436 kts 309°
2026-05-06 11:06 41.28962 22.69061 40053 ft 436 kts 309°
2026-05-06 11:06 41.32824 22.62820 40056 ft 436 kts 309°
2026-05-06 11:07 41.36683 22.56572 40058 ft 436 kts 309°
2026-05-06 11:07 41.40522 22.50344 40055 ft 437 kts 309°
2026-05-06 11:08 41.44383 22.44071 40052 ft 437 kts 309°
2026-05-06 11:08 41.48244 22.37788 40052 ft 436 kts 308°
2026-05-06 11:09 41.52089 22.31511 40052 ft 436 kts 308°
2026-05-06 11:09 41.55925 22.25237 40051 ft 436 kts 308°
2026-05-06 11:10 41.59745 22.18978 40051 ft 436 kts 308°
2026-05-06 11:10 41.63587 22.12669 40049 ft 436 kts 308°
2026-05-06 11:11 41.67424 22.06357 40054 ft 437 kts 308°
2026-05-06 11:11 41.71262 22.00028 40049 ft 437 kts 308°
2026-05-06 11:12 41.75077 21.93722 40049 ft 437 kts 308°
2026-05-06 11:12 41.78905 21.87382 40050 ft 437 kts 308°
2026-05-06 11:13 41.82729 21.81033 40051 ft 437 kts 308°
2026-05-06 11:13 41.86533 21.74704 40050 ft 438 kts 308°
2026-05-06 11:14 41.90398 21.68356 40053 ft 438 kts 310°
2026-05-06 11:14 41.93896 21.63386 40053 ft 439 kts 315°
2026-05-06 11:15 41.98490 21.57943 40054 ft 440 kts 320°
2026-05-06 11:15 42.03334 21.52869 40054 ft 441 kts 320°
2026-05-06 11:16 42.08190 21.47827 40051 ft 441 kts 321°
2026-05-06 11:16 42.12985 21.42742 40049 ft 440 kts 318°
2026-05-06 11:17 42.17453 21.37107 40049 ft 439 kts 312°
2026-05-06 11:17 42.21522 21.30934 40056 ft 439 kts 309°
2026-05-06 11:18 42.25481 21.24653 40059 ft 439 kts 309°
2026-05-06 11:18 42.29411 21.18399 40064 ft 439 kts 309°
2026-05-06 11:19 42.33368 21.12091 40067 ft 439 kts 309°
2026-05-06 11:19 42.37331 21.05761 40071 ft 440 kts 309°
2026-05-06 11:20 42.41281 20.99439 40071 ft 440 kts 309°
2026-05-06 11:20 42.45202 20.93149 40074 ft 440 kts 309°
2026-05-06 11:21 42.49146 20.86810 40078 ft 439 kts 309°
2026-05-06 11:21 42.53085 20.80463 40075 ft 439 kts 309°
2026-05-06 11:22 42.57036 20.74088 40068 ft 440 kts 308°
2026-05-06 11:22 42.60974 20.67713 40059 ft 441 kts 308°
2026-05-06 11:23 42.64888 20.61366 40046 ft 440 kts 308°
2026-05-06 11:23 42.68821 20.54974 40039 ft 441 kts 308°
2026-05-06 11:24 42.72754 20.48566 40041 ft 441 kts 308°
2026-05-06 11:24 42.76683 20.42154 40040 ft 441 kts 308°
2026-05-06 11:25 42.80614 20.35718 40031 ft 441 kts 308°
2026-05-06 11:25 42.84369 20.29103 40029 ft 440 kts 303°
2026-05-06 11:26 42.87777 20.22161 40026 ft 440 kts 302°
2026-05-06 11:26 42.91134 20.15224 40021 ft 440 kts 302°
2026-05-06 11:27 42.94509 20.08241 40016 ft 440 kts 301°
2026-05-06 11:27 42.97875 20.01250 40015 ft 440 kts 301°
2026-05-06 11:28 43.01228 19.94269 40012 ft 440 kts 301°
2026-05-06 11:28 43.04584 19.87268 40008 ft 439 kts 301°
2026-05-06 11:29 43.07915 19.80304 40013 ft 439 kts 301°
2026-05-06 11:29 43.11285 19.73249 40009 ft 440 kts 301°
2026-05-06 11:30 43.14628 19.66226 39998 ft 440 kts 301°
2026-05-06 11:30 43.17967 19.59196 40001 ft 440 kts 301°
2026-05-06 11:31 43.21307 19.52147 40002 ft 440 kts 301°
2026-05-06 11:31 43.24639 19.45101 40000 ft 440 kts 301°
2026-05-06 11:32 43.27969 19.38041 40008 ft 440 kts 301°
2026-05-06 11:32 43.31296 19.30968 40007 ft 441 kts 301°
2026-05-06 11:33 43.34619 19.23886 40008 ft 441 kts 300°
2026-05-06 11:33 43.37943 19.16785 40001 ft 440 kts 300°
2026-05-06 11:34 43.41256 19.09693 40003 ft 441 kts 300°
2026-05-06 11:34 43.44553 19.02619 39999 ft 441 kts 300°
2026-05-06 11:35 43.47863 18.95496 40001 ft 441 kts 300°
2026-05-06 11:35 43.51173 18.88354 39999 ft 441 kts 300°
2026-05-06 11:36 43.54475 18.81215 39999 ft 442 kts 300°